GW3676 Weather Reports


time (UTC)temp
F
wind
direction
speed
knots
gust
knots
rain 1hr
in
rain 24hr
in
rain mn
in
humidity
%
barometer
mb
20260508084557 45 155 0.0 2.6 0.00 0.01 0.01 80 1012.1
20260508083103 45 151 0.9 2.6 0.00 0.01 0.01 80 1012.1
20260508081550 45 180 0.0 2.6 0.00 0.01 0.01 81 1012.2
20260508074544 45 0 0.0 1.7 0.01 0.01 0.01 83 1012.3
20260508073050 46 95 0.0 1.7 0.01 0.01 0.01 83 1012.3
20260508071547 46 0 0.9 5.2 0.01 0.01 0.01 81 1012.6
20260508070053 47 108 1.7 6.1 0.00 0.00 0.00 76 1012.7
20260508064556 47 142 0.9 8.7 0.00 0.00 0.00 73 1012.5
20260508063043 47 134 0.0 1.7 0.00 0.00 0.00 73 1012.4
20260508061543 47 127 0.9 3.5 0.00 0.00 0.00 72 1012.3
20260508060049 46 92 0.0 1.7 0.00 0.00 0.00 74 1012.7
20260508054549 46 0 0.0 0.9 0.00 0.00 0.00 72 1012.5
20260508053053 47 0 0.0 0.9 0.00 0.00 0.00 70 1012.7
20260508051602 47 0 0.0 0.9 0.00 0.00 0.00 69 1012.9
20260508050103 47 92 0.0 0.9 0.00 0.00 0.00 69 1012.9
20260508044555 47 0 0.0 1.7 0.00 0.00 0.00 68 1012.9
20260508043049 47 0 0.0 1.7 0.00 0.00 0.00 69 1013.0
20260508041555 47 0 0.0 1.7 0.00 0.00 0.00 69 1013.0
20260508040057 46 0 0.0 1.7 0.00 0.00 0.00 71 1013.0
20260508034549 44 0 0.0 1.7 0.00 0.00 0.00 75 1013.1
20260508033046 44 0 0.0 1.7 0.00 0.00 0.00 76 1013.1
20260508031551 43 0 0.0 1.7 0.00 0.00 0.00 74 1012.9
20260508030054 44 0 0.0 0.0 0.00 0.00 0.00 73 1012.8
20260508024556 44 0 0.0 0.0 0.00 0.00 0.00 71 1012.9
20260508023053 44 0 0.0 0.0 0.00 0.00 0.00 71 1012.8
20260508021554 45 0 0.0 0.0 0.00 0.00 0.00 70 1013.0
20260508020054 45 0 0.0 0.0 0.00 0.00 0.00 67 1012.8
20260508014548 46 0 0.0 0.0 0.00 0.00 0.00 64 1012.7
20260508013046 46 0 0.0 0.0 0.00 0.00 0.00 64 1012.7
20260508011547 48 0 0.0 0.0 0.00 0.00 0.00 60 1012.5
20260508010051 49 0 0.0 0.0 0.00 0.00 0.00 58 1012.3
20260508004554 50 0 0.0 0.9 0.00 0.00 0.00 57 1012.3
20260508003051 51 0 0.0 1.7 0.00 0.00 0.00 53 1012.3
20260508001549 52 0 0.0 2.6 0.00 0.00 0.00 51 1012.2
20260508000056 52 26 0.0 3.5 0.00 0.00 0.00 50 1011.9
20260507234556 53 0 1.7 8.7 0.00 0.00 0.00 48 1011.7
20260507233116 53 17 1.7 9.6 0.00 0.00 0.00 47 1011.7
20260507231549 54 45 0.9 8.7 0.00 0.00 0.00 49 1011.7
20260507230050 54 327 1.7 7.8 0.00 0.00 0.00 50 1011.7
20260507224550 54 0 1.7 7.8 0.00 0.00 0.00 51 1011.7
20260507223058 55 360 1.7 6.1 0.00 0.00 0.00 46 1011.8
20260507221549 55 13 3.5 12.2 0.00 0.00 0.00 44 1011.7
20260507220049 55 15 1.7 9.6 0.00 0.00 0.00 49 1011.6
20260507214551 54 145 2.6 7.8 0.00 0.00 0.00 46 1011.4
20260507213052 55 250 1.7 9.6 0.00 0.00 0.00 47 1011.2
20260507211601 57 352 2.6 7.8 0.00 0.00 0.00 49 1011.1
20260507210104 56 74 1.7 8.7 0.00 0.00 0.00 50 1010.9
20260507204554 55 352 1.7 7.8 0.00 0.00 0.00 48 1010.9
20260507203056 55 103 1.7 10.4 0.00 0.00 0.00 48 1010.7
20260507201555 56 13 1.7 9.6 0.00 0.00 0.00 47 1010.9
20260507200056 56 265 1.7 7.8 0.00 0.00 0.00 49 1010.8
20260507194557 58 105 1.7 9.6 0.00 0.00 0.00 45 1011.0
20260507193050 59 342 1.7 7.8 0.00 0.00 0.00 49 1011.1
20260507191552 57 51 1.7 6.1 0.00 0.00 0.00 48 1011.2
20260507190058 55 138 1.7 9.6 0.00 0.00 0.00 50 1011.3
20260507184550 55 98 1.7 8.7 0.00 0.00 0.00 50 1011.3
20260507183110 56 139 2.6 8.7 0.00 0.00 0.00 48 1011.5
20260507181557 55 67 1.7 7.8 0.00 0.00 0.00 47 1011.3
20260507180046 56 5 0.9 8.7 0.00 0.00 0.00 50 1011.3
20260507174600 56 360 1.7 7.8 0.00 0.00 0.00 49 1011.5
20260507173050 56 352 1.7 7.8 0.00 0.00 0.00 47 1011.4
20260507171551 56 126 1.7 7.0 0.00 0.00 0.00 53 1011.6
20260507170049 56 98 1.7 6.1 0.00 0.00 0.00 52 1011.7
20260507164615 54 206 3.5 9.6 0.00 0.00 0.00 51 1011.7
20260507163054 55 209 0.9 5.2 0.00 0.00 0.00 50 1011.8
20260507161556 55 222 1.7 7.0 0.00 0.00 0.00 50 1011.7
20260507160048 55 78 0.9 7.8 0.00 0.00 0.00 50 1011.8
20260507154556 54 138 1.7 7.8 0.00 0.00 0.00 53 1011.9
20260507153056 54 213 0.9 6.1 0.00 0.00 0.00 51 1011.9
20260507151549 54 196 0.9 7.8 0.00 0.00 0.00 55 1011.9
20260507150051 53 296 1.7 7.0 0.00 0.00 0.00 57 1012.0
20260507144548 52 178 1.7 6.1 0.00 0.00 0.00 60 1012.1
20260507143049 52 101 0.9 6.1 0.00 0.00 0.00 60 1012.2
20260507141545 51 149 0.9 5.2 0.00 0.00 0.00 65 1012.3
20260507140046 50 0 0.9 3.5 0.00 0.00 0.00 66 1012.4
20260507134550 49 128 0.9 3.5 0.00 0.00 0.00 70 1012.6
20260507133052 49 117 0.0 4.3 0.00 0.00 0.00 76 1012.7
20260507131548 48 148 0.9 4.3 0.00 0.00 0.00 76 1012.6
20260507130054 47 112 1.7 3.5 0.00 0.00 0.00 77 1012.7
20260507124559 45 0 0.0 5.2 0.00 0.00 0.00 79 1012.7
20260507123054 44 110 0.0 4.3 0.00 0.00 0.00 80 1012.6
20260507121553 43 131 0.9 3.5 0.00 0.00 0.00 82 1012.5
20260507120053 42 171 0.0 1.7 0.00 0.00 0.00 87 1012.5
20260507114607 40 0 0.0 1.7 0.00 0.00 0.00 89 1012.6
20260507113105 39 0 0.0 1.7 0.00 0.00 0.00 91 1012.7
20260507111558 39 0 0.0 0.9 0.00 0.00 0.00 91 1012.6
20260507110050 39 0 0.0 0.9 0.00 0.00 0.00 91 1012.5
20260507104552 39 0 0.0 1.7 0.00 0.05 0.00 91 1012.3
20260507103056 39 0 0.0 0.0 0.00 0.05 0.00 92 1012.3
20260507101556 38 0 0.0 0.0 0.00 0.05 0.00 91 1012.2
20260507094559 38 0 0.0 0.0 0.00 0.14 0.00 90 1012.1
20260507093051 38 0 0.0 0.0 0.00 0.14 0.00 90 1012.2
20260507091601 38 0 0.0 0.0 0.00 0.14 0.00 90 1012.4
20260507090044 38 0 0.0 0.0 0.00 0.14 0.00 89 1012.3